Hourly Data Report for September 03, 2017

All times are specified in Local Standard Time (LST). Add 1 hour to adjust for Daylight Saving Time where and when it is observed.

KOUCHIBOUGUAC CS
NEW BRUNSWICK

46°47'00.000" N
65°01'00.000" W
21.00 m
8102328
71670
AKC

Download Data

Hourly Data (September 2017)
Hourly Data Report for September 3, 2017
Temp Definition
°C
Dew Point Temp Definition
°C
Rel Hum Definition
%
Wind Dir Definition
10's deg

Wind Spd Definition
km/h
Visibility Definition
km
Stn Press Definition
kPa
Hmdx Definition


Wind Chill Definition


Weather Definition


TIME
00:00 6.4 6.1 98   0   102.02     LegendNANA
01:00 5.8 5.5 98 15 1   102.04     LegendNANA
02:00 4.8 4.5 98 16 1   102.05     LegendNANA
03:00 4.3 4.0 98 16 1   102.06     LegendNANA
04:00 3.9 3.6 98 19 2   102.10     LegendNANA
05:00 3.4 3.2 98 22 1   102.09     LegendNANA
06:00 3.8 3.5 98 23 3   102.14     LegendNANA
07:00 5.6 5.3 98   0   102.16     LegendNANA
08:00 10.4 8.4 88 27 2   102.18     LegendNANA
09:00 14.4 8.2 67 33 3   102.20     LegendNANA
10:00 18.5 10.0 57 16 9   102.17     LegendNANA
11:00 19.6 9.7 53 18 5   102.06     LegendNANA
12:00 20.0 9.3 50 18 10   102.02     LegendNANA
13:00 19.8 10.0 53 17 8   101.95     LegendNANA
14:00 21.0 9.9 49 16 7   101.87     LegendNANA
15:00 20.6 12.3 59 12 8   101.78     LegendNANA
16:00 21.3 11.3 53 14 12   101.70     LegendNANA
17:00 19.2 11.2 60 14 10   101.65     LegendNANA
18:00 17.9 7.2 49 17 13   101.64     LegendNANA
19:00 16.6 9.2 61 16 12   101.52     LegendNANA
20:00 15.8 9.8 67 16 11   101.46     LegendNANA
21:00 14.5 9.9 74 15 8   101.35     LegendNANA
22:00 13.9 10.0 78 15 9   101.25     LegendNANA
23:00 13.9 10.1 77 15 10   101.13     LegendNANA

Notes on Data Quality.

Legend

  • E = Estimated
  • M = Missing
  • NA = Not Available
  • ‡ = Partner data that is not subject to review by the National Climate Archives
Date modified: